Home > Weather > Laredo > Past weeks

Flag for USA Past Weather in Laredo, Texas, USA — Yesterday and Last 2 Weeks

Now
77 °F

Passing clouds.


Feels Like: 78 °F
Forecast: 78 / 97 °F
Wind: 7 mph from Southeast

Location: Laredo International Airport

Current Time: Jul 29, 2016 at 7:14:56 AM

Latest Report: Jul 29, 2016 at 6:56 AM


Visibility: 10 mi

Pressure: 29.96 "Hg

Humidity: 94%

Dew Point: 75 °F

Location of LaredoLocation

Past Weather in Laredo — Graph

°F

Laredo Temperature Yesterday

Maximum temperature yesterday: 102 °F (at 4:56 PM)
Minimum temperature yesterday: 74 °F (at 9:56 PM)
Average temperature yesterday: 86 °F

High & Low Weather Summary for the Past Weeks

 TemperatureHumidityPressure
High107 °F (Jul 15, 4:56 PM)94% (Jul 27, 2:56 AM)30.16 "Hg (Jul 27, 2:56 AM)
Low74 °F (Jul 28, 9:56 PM)15% (Jul 15, 4:56 PM)29.78 "Hg (Jul 24, 5:56 PM)
Average89 °F59%29.96 "Hg
* Reported Jul 14 5:56 AM — Jul 29 5:56 AM, Laredo, Weather by CustomWeather, © 2016

Note: Actual official high and low records may vary slightly from our data, if they occured in-between our weather recording intervals... More about our weather records

Advertising

Laredo Weather History for the Previous 24 Hours

Scroll right to see more
 ConditionsComfort  
Time TempWeatherWind HumidityBarometerVisibility
5:56 AM
Fri, Jul 29
77 °FPassing clouds.7 mph94%29.96 "Hg10 mi
4:56 AM77 °FClear.7 mph90%29.95 "Hg10 mi
3:56 AM78 °FClear.8 mph90%29.95 "Hg10 mi
2:56 AM78 °FPassing clouds.7 mph90%29.95 "Hg10 mi
1:56 AM78 °FClear.8 mph90%29.95 "Hg10 mi
12:56 AM77 °FClear.9 mph90%29.96 "Hg10 mi
11:56 PM
Thu, Jul 28
76 °FClear.7 mph88%29.96 "Hg10 mi
9:56 PM74 °FLight rain. Passing clouds.10 mph91%29.96 "Hg10 mi
8:56 PM76 °FLight rain. Scattered clouds.15 mph82%29.95 "Hg10 mi
7:56 PM80 °FPassing clouds.12 mph76%29.93 "Hg10 mi
6:56 PM84 °FSunny.20 mph67%29.90 "Hg10 mi
5:56 PM97 °FSunny.18 mph37%29.84 "Hg10 mi
4:56 PM102 °FPassing clouds.15 mph32%29.82 "Hg10 mi
3:56 PM99 °FScattered clouds.15 mph35%29.84 "Hg10 mi
2:56 PM97 °FPartly sunny.10 mph39%29.88 "Hg10 mi
1:56 PM96 °FScattered clouds.15 mph46%29.91 "Hg10 mi
12:56 PM92 °FMostly cloudy.6 mph52%29.94 "Hg10 mi
11:56 AM91 °FPartly sunny.9 mph57%29.96 "Hg10 mi
10:56 AM88 °FPassing clouds.14 mph63%29.96 "Hg10 mi
9:56 AM85 °FPassing clouds.12 mph72%29.97 "Hg10 mi
8:56 AM83 °FSunny.12 mph79%29.96 "Hg10 mi
7:56 AM80 °FClear.6 mph85%29.95 "Hg10 mi
Weather by CustomWeather, © 2016

See weather overviewHow to use our weather pages